Regional Weather Roundup
Issued by NWS

Home | Current Version | Previous Version | Text Only | Print | Product List | Glossary On
Versions: 1 2 3 4 5 6 7 8 9 10 11 12 13 14 15 16 17 18 19 20 21 22 23 24 25 26 27 28 29 30 31 32 33 34 35 36 37 38 39 40 41 42 43 44 45 46 47 48 49 50
000
ASUS43 KTOP 050259
RWRKS

WEATHER ROUNDUP FOR KANSAS
NATIONAL WEATHER SERVICE GOODLAND KS
900 PM CST SUN DEC 04 2016

NOTE:  "FAIR" INDICATES FEW OR NO CLOUDS BELOW 12,000 FEET WITH NO
SIGNIFICANT WEATHER AND/OR OBSTRUCTIONS TO VISIBILITY.

KSZ001>006-013>018-027>032-041>047-050400-
NORTHWEST KANSAS

CITY           SKY/WX    TMP DP  RH WIND       PRES   REMARKS
GOODLAND       CLOUDY    35  13  40 S17       29.82F WCI  25
HAYS           CLEAR     33  25  72 SW8       29.93F
HILL CITY      CLEAR     34  20  56 SW8       29.89F
RUSSELL        CLEAR     35  26  69 S13       29.92F WCI  26
$$

KSZ061>065-074>080-084>089-050400-
SOUTHWEST KANSAS

CITY           SKY/WX    TMP DP  RH WIND       PRES   REMARKS
DODGE CITY     CLEAR     33  24  69 SW7       29.96F
ELKHART          N/A     33  16  49 S12         N/A  WCI  24
GARDEN CITY    CLEAR     31  22  69 S9        29.91F
GREAT BEND     CLEAR     35  27  72 SW8       29.96F
LIBERAL        CLOUDY    32  21  64 S9        29.95F
$$

KSZ066>073-081>083-090>101-050400-
SOUTHEAST KANSAS

CITY           SKY/WX    TMP DP  RH WIND       PRES   REMARKS
CHANUTE        FOG       30  29  96 CALM      30.01F VSB 1/2
COFFEYVILLE    CLEAR     36  34  92 CALM      30.03S
HUTCHINSON     CLEAR     31  28  89 CALM      29.98F
MEDICINE LODGE   N/A     33  27  78 CALM      29.99S
NEWTON         CLEAR     36  33  89 S9        29.99F
PARSONS        PTCLDY    32  31  96 CALM      30.03S
WICHITA INTL   CLEAR     35  33  92 S7        29.99F
WICHITA JABRA  CLEAR     37  35  92 S7        29.99F
WINFIELD       CLEAR     37  34  89 CALM      30.02F
$$

KSZ007>012-019>026-033>040-048>060-102>105-050400-
NORTHEAST KANSAS

CITY           SKY/WX    TMP DP  RH WIND       PRES   REMARKS
CONCORDIA      CLEAR     38  31  76 S12       29.94S WCI  30
EMPORIA        CLEAR     32  30  92 S10       29.99S WCI  24
LAWRENCE       CLEAR     29  29 100 CALM      30.01R FOG
MANHATTAN      CLEAR     31  29  92 CALM      29.98S FOG
OLATHE IND     CLEAR     30  30 100 S6        30.01S
OLATHE EXE     CLEAR     34  33  96 SW3       30.00S
SALINA         CLEAR     34  31  88 S8        29.97S
TOPEKA BILLARD CLEAR     30  27  88 CALM      30.00S FOG
TOPEKA FORBES  CLEAR     34  32  92 S6        29.99S
$$



USA.gov is the U.S. government's official web portal to all federal, state and local government web resources and services.